Showing default

HAWK-11B, 62379

Orbit data source: Space-Track

HAWK-11B, 62379 is a payload satellite owned by HawkEye 360 (US) in LEO that was launched on Sat, 21 Dec 2024 UTC via an FALCON 9 launch vehicle from the Air Force Western Test Range (AFWTR). Payload-class satellites include a variety of spacecraft equipped with specific instruments for various scientific and technological missions. These include communications satellites like Starlink; space stations such as the ISS; scientific satellites like the Hubble; Earth observation satellites from companies like Planet Labs, Umbra, and HawkEye 360; GPS; miniature CubeSats for education and research; and military/defense satellites.

Loading next visibility...
Identifier
62379, 2024-247C
Orbit
LEO
Country
Flag of USUS
Related business
Manufacturer
UTIAS-SFL
Mission
Operational Commercial Sigint
Bus & Motor
HAWK2G, Unknown motor
Mass
31 kg wet, 30 kg dry
Launch date (UTC)
2024-12-21 (1 year ago)
Launch vehicle
FALCON 9
Launch site
Air Force Western Test Range (AFWTR)
Object type
Payload
Rocket body
Debris
Shape & HBR
Box + 2 Pan, 1.0 m
Radar Cross Section
0.240 m², Medium (>0.1 m² and < 1m²)

Expand to show TLE details & history
Last TLE update: 16 hours ago

TLE from 16 hours ago
0 HAWK-11B
1 62379U 24247C   26171.30315675  .00005390  00000-0  19012-3 0  9996
2 62379  45.0149 272.6424 0004874 257.0130 103.0211 15.30368672 83482
Epoch: 2026-06-20T07:16Z
TLE epoch observation values (Epoch: 2026-06-20T07:16:32.743Z)
Latitude
0.00005°
Longitude
-105.0137°
Altitude
475.466 km
Speed
7.629 km/s
True Right ascension
18h 10m 34s
True Declination
0° 00' 00"
Sunlit
Object was in full shadow at epoch
Visualization orbit readout
Latitude
Unknown
Longitude
Unknown
Altitude
Unknown
Speed
Unknown
Apparent Right ascension
Unknown
Apparent Declination
Unknown
Sunlit
N/A
Visualization observer readout
Local Sidereal Time
10:17:53
Azimuth
Unknown
Elevation
Unknown
Doppler factor
Unknown
Orbital elements
Apogee altitude
479.661 km
Perigee altitude
472.979 km
Semi-major axis
6,854.457 km
Eccentricity
0.00049
Inclination
45.0149°
RAAN
272.6424°
Arg. of periapsis
257.013°
True anomaly
103.07551°
Mean anomaly
103.0211°
Eccentric anomaly
103.0483°
Mean motion
3.82458 °/min
Orbital period
94.13 mins
BSTAR
0.00019012
Loading maneuver chart data...
Computing Atmospheric mass density...
Loading historical data...
Loading historical data...
Loading historical data...
Loading historical data...
Loading historical data...
Loading historical data...
Loading historical data...

Documentation

Showing up to 5 results
|